This is the latest recevied weather packets stored in our database for station/object N9ALD. If no packets are shown the sender has not sent any weather packets the latest 10 day(s).
| Time | Temp. | Humidity | Pressure | Rain* | Wind** | Luminosity | Snow |
|---|---|---|---|---|---|---|---|
| 1777482216 | 16.67° C | 67% | 1008.7 hPa | 0 mm | - | 806 W/m² | - |
| 1777481913 | 16.11° C | 66% | 1008.9 hPa | 0 mm | - | 957 W/m² | - |
| 1777481611 | 16.67° C | 67% | 1008.9 hPa | 0 mm | - | 647 W/m² | - |
| 1777481307 | 16.11° C | 69% | 1009.3 hPa | 0 mm | - | 809 W/m² | - |
| 1777481004 | 16.11° C | 70% | 1009 hPa | 0 mm | - | 219 W/m² | - |
| 1777480700 | 16.11° C | 73% | 1009.1 hPa | 0 mm | - | 390 W/m² | - |
| 1777480397 | 16.67° C | 71% | 1008.9 hPa | 0 mm | - | 205 W/m² | - |
| 1777480093 | 16.67° C | 70% | 1008.9 hPa | 0 mm | - | 854 W/m² | - |
| 1777479789 | 16.11° C | 74% | 1009.1 hPa | 0 mm | - | 898 W/m² | - |
| 1777479487 | 16.11° C | 72% | 1008.9 hPa | 0 mm | - | 774 W/m² | - |
| 1777479184 | 16.11° C | 73% | 1008.9 hPa | 0 mm | - | 323 W/m² | - |
| 1777478880 | 15.56° C | 75% | 1009 hPa | 0 mm | - | 774 W/m² | - |
| 1777478576 | 15.56° C | 74% | 1009 hPa | 0 mm | - | 478 W/m² | - |
| 1777478274 | 15° C | 76% | 1009.1 hPa | 0 mm | - | 691 W/m² | - |
| 1777477970 | 15° C | 75% | 1009.2 hPa | 0 mm | - | 691 W/m² | - |
| 1777477665 | 15° C | 76% | 1008.9 hPa | 0 mm | - | 659 W/m² | - |
| 1777477363 | 15° C | 78% | 1009.2 hPa | 0 mm | - | 250 W/m² | - |
| 1777477059 | 14.44° C | 81% | 1009 hPa | 0 mm | - | 693 W/m² | - |
| 1777476757 | 13.89° C | 81% | 1009 hPa | 0 mm | - | 659 W/m² | - |
| 1777476453 | 13.89° C | 84% | 1009.1 hPa | 0 mm | - | 154 W/m² | - |
| 1777476150 | 14.44° C | 82% | 1009.1 hPa | 0 mm | - | 193 W/m² | - |
| 1777475845 | 14.44° C | 84% | 1009.1 hPa | 0 mm | - | 458 W/m² | - |
| 1777475542 | 13.89° C | 84% | 1009 hPa | 0 mm | - | 474 W/m² | - |
| 1777475238 | 13.33° C | 84% | 1009.1 hPa | 0 mm | - | 293 W/m² | - |
| 1777474933 | 13.33° C | 86% | 1009.1 hPa | 0 mm | - | 256 W/m² | - |
* Rain latest hour (hover to see other rain measurements)
** Current wind speed in m/s (hover to see current wind gust speed)